Regional Weather Roundup
Issued by NWS Green Bay, WI

Home | Current Version | Previous Version | Text Only | Print | Product List | Glossary On
Versions: 1 2 3 4 5 6 7 8 9 10 11 12 13 14 15 16 17 18 19 20 21 22 23 24 25 26 27 28 29 30 31 32 33 34 35 36 37 38 39 40 41 42 43 44 45 46 47 48 49 50
000
ASUS43 KGRB 300100
RWRGRB

NORTH-CENTRAL AND NORTHEAST WISCONSIN REGIONAL WEATHER ROUNDUP
NATIONAL WEATHER SERVICE GREEN BAY WI
800 PM CDT WED MAR 29 2017

WIZ005-009-010>012-018-019-300200-
NORTH CENTRAL WISCONSIN

CITY           SKY/WX    TMP DP  RH WIND       PRES   REMARKS
IRONWOOD       PTCLDY    42  30  62 SE3       30.19F
MANITOWISH WTR NOT AVBL
ARBOR VITAE    NOT AVBL
EAGLE RIVER    NOT AVBL
LAND O LAKES   NOT AVBL
RHINELANDER    CLOUDY    41  29  62 E6        30.20S
PHILLIPS       NOT AVBL
ANTIGO         NOT AVBL
TOMAHAWK       NOT AVBL
MERRILL        NOT AVBL
$$

WIZ013-073-300200-
NORTHEAST WISCONSIN

CITY           SKY/WX    TMP DP  RH WIND       PRES   REMARKS
IRON MOUNTAIN  CLOUDY    40  26  57 E9        30.23R
MARINETTE      CLOUDY    36  26  67 NE10      30.25S
$$

WIZ017-030-035>037-045-300200-
CENTRAL WISCONSIN

CITY           SKY/WX    TMP DP  RH WIND       PRES   REMARKS
MEDFORD        NOT AVBL
WAUSAU         CLOUDY    41  28  60 SE9       30.20R
MOSINEE        CLOUDY    39  30  70 SE5       30.22R
MARSHFIELD     LGT RAIN  39  34  82 SE5       30.19R
WISC RAPIDS    LGT RAIN  39  37  92 E7        30.22R
STEVENS POINT  NOT AVBL
WAUPACA        NOT AVBL
SHAWANO        NOT AVBL
CLINTONVILLE   NOT AVBL
WAUTOMA        CLOUDY    41  31  67 E10       30.21S
$$

WIZ038-039-048-051-300200-
FOX VALLEY

CITY           SKY/WX    TMP DP  RH WIND       PRES   REMARKS
NWS GREEN BAY  CLOUDY    38  31  76 NE9       30.23F
APPLETON       CLOUDY    39  27  60 NE9       30.20F
OSHKOSH        CLOUDY    39  27  62 NE13      30.21S
FOND DU LAC    CLOUDY    40  28  62 NE9       30.21S
$$

WIZ022-050-052-300200-
EAST CENTRAL WISCONSIN

CITY           SKY/WX    TMP DP  RH WIND       PRES   REMARKS
EPHRAIM        NOT AVBL
WASHINGTON ISL NOT AVBL
STURGEON BAY   CLOUDY    37  28  70 NE8       30.25R
MANITOWOC      NOT AVBL
SHEBOYGAN      CLOUDY    38  30  73 N8        30.21R
$$

LMZ563-521-522-541>543-300200-
LAKESHORE

STATION/POSITION TIME  TEMP    WIND        PRES    VSBY  WAVE
                       AIR SEA DIR/SP/G                  HT/PER
                 (UTC) (F)     (DEG/KT/KT) (MB)    (MI)  (FT/S)
SHEBOYGAN LKSHOR 0000   37      10/ 20/ 21 1023.1R
KEWAUNEE LKSHORE 0030   36      30/  6/  9 1023.8R
NORTHPORT PIER   0040   36      60/  9/ 13 1024.4F
CHAMBERS ISLAND  0040   36      40/ 10/ 12 1024.0S
MENOMINEE LKSHOR 0030   34     360/  9/ 10 1023.5R
$$




USA.gov is the U.S. government's official web portal to all federal, state and local government web resources and services.